Location: Ashtead
(51.3000°N, 0.3000°W)
Time: 04:49:38
(UTC+00:00)

SL-24 DEB - Pass Details

Date: 26 September 2023
Orbit: 654 x 688 km, 92.0° (Epoch: 29 November)

Event Time Altitude Azimuth Distance (km) Brightness Sun altitude
Exits shadow 03:37:25 50° 214° (SW) 878 4.4 -21.3°
Maximum altitude 03:38:26 64° 268° (W) 766 4.2 -21.2°
Drops below altitude 10° 03:43:09 10° 350° (N) 2,156 7.0 -20.5°
Sets 03:45:28 0° 354° (N) 3,080 7.9 -20.2°
